Flag for Germany Weather past 2 weeks in Königswinter, North Rhine-Westphalia, Germany

Now
37 °F

Clear.


Feels Like: 33 °F
Forecast: 35 / 61 °F
Wind: 6 mph from Southwest

Location: Bonn-Hangelar

Current Time: Mar 7, 2015 at 1:33:16 AM

Latest Report: Mar 7, 2015 at 1:00 AM


Visibility: 10 mi

Pressure: 30.54 "Hg

Humidity: 85%

Dew point: 33 °F

Location of KönigswinterLocation

Historic Weather in Königswinter — Graph

°F

Königswinter temperature yesterday

Maximum temperature yesterday: 46 °F (at 4:00 PM)
Minimum temperature yesterday: 34 °F (at 12:00 AM)
Average temperature yesterday: 39 °F

Past Weeks' High & Low Weather Summary

 TemperatureHumidityPressure
High49 °F (Mar 1, 1:00 PM)100% (Feb 21, 8:00 PM)30.69 "Hg (Feb 21, 8:00 PM)
Low31 °F (Feb 28, 1:00 AM)54% (Feb 28, 5:00 PM)29.38 "Hg (Feb 21, 3:00 AM)
Average39 °F85%29.96 "Hg
* Reported Midnight between Feb 19 and Feb 20 — Midnight between Mar 6 and Mar 7, Königswinter, Weather by CustomWeather, © 2015

Note: Actual official high and low records may vary slightly from our data, if they occured in-between our weather recording intervals... More about our weather records

Advertising

Königswinter weather history for previous 24 hours

 ConditionsComfort  
Time TempWeatherWind HumidityBarometerVisibility
12:00 AM
Sat, Mar 7
37 °FPassing clouds.5 mph85%30.56 "Hg11 mi
11:00 PM
Fri, Mar 6
38 °FClear.5 mph82%30.56 "Hg13 mi
10:00 PM37 °FOvercast.3 mph84%30.56 "Hg11 mi
9:00 PM39 °FClear.3 mph80%30.56 "Hg25 mi
8:00 PM39 °FPassing clouds.3 mph80%30.56 "Hg22 mi
7:00 PM41 °FPassing clouds.2 mph77%30.59 "Hg31 mi
6:00 PM43 °FPartly sunny.5 mph74%30.58 "Hg31 mi
5:00 PM46 °FPartly sunny.6 mph68%30.56 "Hg31 mi
4:00 PM46 °FPartly sunny.3 mph66%30.57 "Hg31 mi
3:00 PM45 °FPartly sunny.5 mph63%30.59 "Hg31 mi
2:00 PM45 °FPartly sunny.5 mph67%30.59 "Hg19 mi
1:00 PM45 °FOvercast.7 mph72%30.62 "Hg16 mi
12:00 PMN/APassing clouds.9 mphN/AN/A3 mi
11:00 AM42 °FOvercast.5 mph78%30.65 "Hg22 mi
10:00 AM40 °FOvercast.3 mph80%30.66 "Hg22 mi
9:00 AM38 °FOvercast.6 mph83%30.65 "Hg22 mi
8:00 AM37 °FOvercast.6 mph87%30.64 "Hg12 mi
7:00 AM36 °FOvercast.5 mph88%30.66 "Hg7 mi
6:00 AM36 °FOvercast.6 mph89%30.66 "Hg9 mi
5:00 AM36 °FFog.6 mph89%30.66 "Hg4 mi
4:00 AM35 °FFog.5 mph89%30.65 "Hg4 mi
3:00 AM36 °FOvercast.5 mph86%30.66 "Hg6 mi
2:00 AM35 °FClear.5 mph87%30.66 "Hg7 mi
1:00 AM35 °FClear.5 mph88%30.66 "Hg7 mi
Weather by CustomWeather, © 2015

See weather overviewHow to use our weather pages